Location: Newark
(7.1028°S, 35.3258°W)
Time: 06:29:16
(UTC+00:00)

Vanguard 3 - Pass Details

Date: 20 February 2020
Orbit: 508 x 3263 km, 33.4° (Epoch: 07 April)

Event Time Altitude Azimuth Distance (km) Brightness Sun altitude
Rises 00:41:46 0° 266° (W) 7,135 12.4 -56.4°
Reaches altitude 10° 00:48:21 10° 254° (WSW) 5,871 11.8 -57.8°
Maximum altitude 01:01:17 25° 206° (SSW) 3,876 10.7 -60.4°
Enters shadow 01:04:37 23° 186° (S) 3,720 10.5 -61.0°
Drops below altitude 10° 01:10:29 10° 154° (SSE) 4,077 - -62.1°
Sets 01:14:02 0° 140° (SE) 4,656 - -62.8°
